Showing default

KUIPER-00090, 64835

Orbit data source: Space-Track

KUIPER-00090, 64835 is a payload satellite owned by Kuiper Systems (US) in LEO that was launched on Wed, 16 Jul 2025 UTC via an FALCON 9 launch vehicle from the Air Force Eastern Test Range (AFETR). Payload-class satellites include a variety of spacecraft equipped with specific instruments for various scientific and technological missions. These include communications satellites like Starlink; space stations such as the ISS; scientific satellites like the Hubble; Earth observation satellites from companies like Planet Labs, Umbra, and HawkEye 360; GPS; miniature CubeSats for education and research; and military/defense satellites.

Loading next visibility...
Identifier
64835, 2025-151V
Orbit
LEO
Country
Flag of USUS
Related business
Manufacturer
Kuiper Systems
Mission
Operational Commercial Communications
Bus & Motor
KUIPER, Unknown motor
Mass
~490 kg wet, ~490 kg dry
Launch date (UTC)
2025-07-16 (11 months ago)
Launch vehicle
FALCON 9
Launch site
Air Force Eastern Test Range (AFETR)
Object type
Payload
Rocket body
Debris
Shape & HBR
Box + 2 Pan, 3.4 m
Radar Cross Section
2.326 m², Large (>1 m²)

Expand to show TLE details & history
Last TLE update: 10 hours ago

TLE from 10 hours ago
0 KUIPER-00090
1 64835U 25151V   26166.80389059  .00001792  00000-0  26393-3 0  9998
2 64835  51.8964 204.2456 0000480  83.5438 276.5579 14.79937044 50146
Epoch: 2026-06-15T19:17Z
TLE epoch observation values (Epoch: 2026-06-15T19:17:36.146Z)
Latitude
-0.00004°
Longitude
10.75993°
Altitude
630.231 km
Speed
7.545 km/s
True Right ascension
13h 36m 58s
True Declination
0° 00' 00"
Sunlit
Object was in full shadow at epoch
Visualization orbit readout
Latitude
Unknown
Longitude
Unknown
Altitude
Unknown
Speed
Unknown
Apparent Right ascension
Unknown
Apparent Declination
Unknown
Sunlit
N/A
Visualization observer readout
Local Sidereal Time
15:50:38
Azimuth
Unknown
Elevation
Unknown
Doppler factor
Unknown
Orbital elements
Apogee altitude
630.311 km
Perigee altitude
629.638 km
Semi-major axis
7,008.112 km
Eccentricity
0.00005
Inclination
51.8964°
RAAN
204.2456°
Arg. of periapsis
83.5438°
True anomaly
276.55244°
Mean anomaly
276.5579°
Eccentric anomaly
276.55517°
Mean motion
3.69949 °/min
Orbital period
97.31 mins
BSTAR
0.00026393
Loading maneuver chart data...
Computing Atmospheric mass density...
Loading historical data...
Loading historical data...
Loading historical data...
Loading historical data...
Loading historical data...
Loading historical data...
Loading historical data...

Documentation

Showing up to 5 results
|